This demonstration page uses our WeatherBlox Daily Observations layout. Learn more.

Left ArrowRight Arrow

38.20091, -84.87328

Hourly Observations for January 20, 2015

Temp ( °F °C ) Dew Point ( °F °C ) Humidity (%) Winds ( mph kmh ) Pressure ( in mb ) Visibility ( mi km ) Precip ( " mm )
12:53 am 00:53 Mostly Cloudy 29 -1.7 25 -3.9 85 85 Calm 29.89 1012 10 16 0.00 0.00
1:53 am 01:53 Clear 28 -2.2 24 -4.4 85 85 Calm 29.88 1012 10 16 0.00 0.00
2:53 am 02:53 Clear 27 -2.8 23 -5 85 85 Calm 29.88 1012 10 16 0.00 0.00
3:53 am 03:53 Clear 27 -2.8 24 -4.4 89 89 Calm 29.86 1011 10 16 0.00 0.00
4:53 am 04:53 Clear 26 -3.3 23 -5 88 88 Calm 29.86 1011 10 16 0.00 0.00
5:53 am 05:53 Partly Cloudy 25 -3.9 22 -5.6 88 88 Calm 29.86 1011 10 16 0.00 0.00
6:53 am 06:53 Cloudy 27 -2.8 24 -4.4 89 89 Calm 29.88 1012 10 16 0.00 0.00
7:53 am 07:53 Cloudy 29 -1.7 25 -3.9 85 85 Calm 29.89 1012 10 16 0.00 0.00
8:53 am 08:53 Mostly Cloudy 32 0 28 -2.2 85 85 Calm 29.90 1013 10 16 0.00 0.00
9:53 am 09:53 Sunny 40 4.4 30 -1.1 68 68 SW 7 11 29.91 1013 10 16 0.00 0.00
10:53 am 10:53 Sunny 47 8.3 31 -0.6 54 54 W 7 11 29.92 1013 10 16 0.00 0.00
11:53 am 11:53 Sunny 51 10.6 32 0 48 48 NW 8 13 29.93 1014 10 16 0.00 0.00
12:53 pm 12:53 Sunny 54 12.2 32 0 43 43 VRB 5 7 29.91 1013 10 16 0.00 0.00
1:53 pm 13:53 Sunny 54 12.2 30 -1.1 40 40 WSW 7 11 29.89 1012 10 16 0.00 0.00
2:53 pm 14:53 Sunny 55 12.8 30 -1.1 38 38 W 7 11 29.89 1012 10 16 0.00 0.00
3:53 pm 15:53 Sunny 55 12.8 28 -2.2 35 35 VRB 6 9 29.89 1012 10 16 0.00 0.00
4:53 pm 16:53 Sunny 53 11.7 28 -2.2 38 38 WNW 8 13 29.91 1013 10 16 0.00 0.00
5:53 pm 17:53 Clear 50 10 29 -1.7 44 44 NW 5 7 29.94 1014 10 16 0.00 0.00
6:53 pm 18:53 Clear 41 5 29 -1.7 62 62 Calm 29.96 1015 10 16 0.00 0.00
7:53 pm 19:53 Mostly Clear 42 5.6 30 -1.1 62 62 W 3 6 29.98 1015 10 16 0.00 0.00
8:53 pm 20:53 Partly Cloudy 44 6.7 31 -0.6 60 60 WSW 3 6 29.97 1015 10 16 0.00 0.00
9:53 pm 21:53 Cloudy 46 7.8 31 -0.6 56 56 W 5 7 29.97 1015 10 16 0.00 0.00
10:53 pm 22:53 Cloudy 46 7.8 31 -0.6 56 56 W 3 6 29.97 1015 10 16 0.00 0.00
11:53 pm 23:53 Mostly Cloudy 44 6.7 31 -0.6 60 60 W 3 6 29.98 1015 10 16 0.00 0.00

Powered by AerisWeather